Preview of NWS' New Version of Forecast
This preview is not operational and should not be used for support decisions.
Latest weather observations around

Lansing Municipal Airport (KIGQ)

Using English Units (Switch to International System of Units)
Date/ Time (CDT) Wind (mph) Vis. (mi) Weather Sky Cond. Temp (°F) Rel. Humidity Wind Chill (°F) Heat Index (°F) Pressure Precip. (in)
Air Dwpt 6 hour Altimeter (inHg) Sea level (inHg) 1 hr 3 hr 6 hr
Max Min
Notice The following observation data may not be complete
Aug 20 17:35   10 Cloudy BKN042 OVC070          %              
Aug 20 17:15 Calm 10 Mostly Cloudy SCT050 BKN070 74 71     88%   76 29.91        
Aug 20 16:55 Calm 10 Partly Cloudy SCT110 74 72     91%   76 29.92        
Aug 20 16:35 Calm 10 Cloudy SCT090 OVC110 72 71     96%   74 29.92        
Aug 20 16:15 Calm 10 Light Rain SCT050 SCT070 OVC090 72 70     95%   73 29.94        
Aug 20 15:55 Calm 10 Light Rain SCT070 OVC080 72 69     93%   73 29.96     0  
Aug 20 15:35 Calm 10 Light Rain SCT033 BKN065 OVC080 72 69     92%   73 29.99        
Aug 20 15:15 Calm 10 Light Rain SCT032 BKN065 OVC100 71 69     93%   73 30        
Aug 20 14:55 Calm 10 Light Rain SCT041 SCT080 BKN110 71 70     96%   72 30        
Aug 20 14:35 Calm 10 Mostly Cloudy SCT065 SCT075 BKN110 70 69     96%   72 30.01        
Aug 20 14:15 Calm 10 Partly Cloudy SCT070 SCT095 SCT110 69 69     99%     30        
Aug 20 13:55 SE 9 10 Light Rain SCT037 SCT065 BKN100 68 68     100%     30.01   0    
Aug 20 13:35 ESE 6 7 Rain OVC100 68 68     100%     29.99   0    
Aug 20 13:15 S 3 5 Rain SCT075 BKN090 OVC120 67 67     99%     30.01   0    
Aug 20 12:55 WSW 8 10 Cloudy SCT042 BKN055 OVC110 69 67     93%     30.02   0   0
Aug 20 12:35   5 Thunderstorms and Rain SCT013 BKN046 OVC055 72 66     84%   72 30.03        
Aug 20 12:15 SW 6 10 Thunderstorms OVC055 76 75     95%   78 30.01        
Aug 20 11:55 Calm 10 Mostly Cloudy BKN055 76 75     97%   78 29.99        
Aug 20 11:35 SSW 3 10 Partly Cloudy SCT055 76 75     96%   78 30        
Aug 20 11:15 Calm 10 Clear CLR 76 75     96%   78 29.99        
Aug 20 10:55 Calm 10 Clear CLR 77 75     94%   79 29.99        
Aug 20 10:35 Calm 10 Clear CLR 77 75     92%   79 29.99        
Aug 20 10:15 SSE 5 10 Clear CLR 77 75     93%   79 29.99        
Aug 20 09:55 S 6 10 Clear CLR 77 75     93%   79 30.01        
Aug 20 09:35 SSW 3 10 Partly Cloudy SCT060 77 75     93%   79 30.01        
Aug 20 09:15 SW 6 10 Partly Cloudy SCT060 76 74     94%   78 30.02        
Aug 20 08:55 SSW 5 10 Clear CLR 76 74     94%   78 30.02        
Aug 20 08:35 SSW 5 10 Clear CLR 75 74     96%   77 30.01        
Aug 20 08:15 SSW 3 10 Clear CLR 75 74     98%   77 30.01        
Aug 20 07:55 Calm 10 Clear CLR 75 74     98%   77 30.01        
Aug 20 07:35 S 3 10 Partly Cloudy SCT055 74 74     100%   76 30.01        
Aug 20 07:15 Calm 7 Clear CLR 73 73     100%   74 30.01        
Aug 20 06:55 Calm 7 Clear CLR 72 72     100%   73 30.01        
Aug 20 06:35 Calm 7 Clear CLR 71 71     100%   73 29.99        
Aug 20 06:15 Calm 7 Clear CLR 72 72     100%   73 30        
Aug 20 05:55 Calm 10 Clear CLR 72 72     100%   73 29.97        
Aug 20 05:35 Calm 7 Clear CLR 71 71     100%   73 29.98        
Aug 20 05:15 Calm 10 Mostly Cloudy SCT032 BKN055 72 72     100%   74 30        
Aug 20 04:55 Calm 7 Cloudy BKN032 BKN041 OVC055 72 72     100%   74 30.01        
Aug 20 04:35 Calm 10 Cloudy OVC034 72 72     100%   74 30.03        
Aug 20 04:15 Calm 10 Cloudy OVC036 72 72     100%   74 30.03        
Aug 20 03:55 Calm 10 Mostly Cloudy BKN036 72 72     100%   74 30.03        
Aug 20 03:35 Calm 10 Partly Cloudy SCT036 72 72     100%   74 30.03        
Aug 20 03:15 Calm 10 Clear CLR 72 72     100%   73 30.03        
Aug 20 02:55 Calm 10 Clear CLR 72 72     100%   74 30.02        
Aug 20 02:35 Calm 7 Clear CLR 72 72     100%   73 30.02        
Aug 20 02:15 Calm 3 Fog/Mist CLR 72 72     100%   73 30.02        
Aug 20 01:55 Calm 5 Fog/Mist CLR 72 72     100%   74 30.02        
Aug 20 01:35 Calm 10 Clear   74 74     100%   75 30.02        
Aug 20 01:15 Calm 10 Clear   73 73     100%   75 30.02        
Aug 20 00:55 Calm 10 Clear   73 73     100%   75 30.02       0
Aug 20 00:35 Calm 10 Clear CLR 74 74     100%   75 30.01        
Aug 20 00:15 Calm 10 Clear CLR 74 73     97%   76 30.01        
Aug 19 23:55 Calm 10 Clear CLR 75 73     92%   77 30.01        
Aug 19 23:35 S 5 10 Partly Cloudy SCT036 SCT044 SCT049 75 73     95%   76 30.01        
Aug 19 23:15 Calm 10 Mostly Cloudy SCT036 BKN042 BKN049 75 75     99%   77 30.01        
Aug 19 22:55 Calm 10 Partly Cloudy SCT042 76 74     95%   77 30.02        
Aug 19 22:35 Calm 10 Mostly Cloudy BKN042 BKN050 BKN100 77 74     93%   78 30.02        
Aug 19 22:15 Calm 10 Light Rain BKN040 BKN048 OVC095 76 74     94%   78 30.03        
Aug 19 21:55 Calm 7 Light Rain SCT042 BKN050 OVC070 78 73     85%   79 30.01   0 0  
Aug 19 21:35 Calm 10 Rain SCT050 BKN065 BKN075 79 72     82%   82 30.01        
Aug 19 21:15 Calm 10 Partly Cloudy SCT050 SCT095 79 72     79%   82 30.01        
Aug 19 20:55 Calm 10 Cloudy SCT045 OVC050 80 72     77%   84 30.01        
Aug 19 20:35 Calm 10 Cloudy OVC060 79 72     79%   82 29.99        
Aug 19 20:15 Calm 10 Partly Cloudy SCT060 79 72     80%   82 29.99        
Aug 19 19:55 Calm 10 Clear CLR 79 72     78%   83 29.99        
Aug 19 19:35 Calm 10 Clear CLR 80 72     79%   83 29.98        
Aug 19 19:15 Calm 10 Partly Cloudy SCT060 80 73     79%   84 29.99        
Aug 19 18:55 Calm 10 Partly Cloudy SCT060 81 72     74%   86 29.99        
Aug 19 18:35 SSW 5 10 Clear CLR 82 72     72%   87 29.99        
Aug 19 18:15 S 6 10 Clear CLR 84 71     65%   89 29.98        
Aug 19 17:55 SSW 6 10 Clear CLR 85 72     64%   91 29.99        
Aug 19 17:35 S 6 10 Partly Cloudy SCT075 85 72     65%   90 29.99        
Aug 19 17:15 SSW 8 10 Mostly Cloudy SCT043 SCT050 BKN075 86 72     63%   92 29.99        
Aug 19 16:55 SSW 6 10 Cloudy BKN043 BKN050 OVC065 84 70     63%   89 29.99        
Aug 19 16:35 SSE 8 10 Mostly Cloudy SCT047 SCT060 BKN085 84 71     65%   88 30        
Aug 19 16:15 SSW 6 10 Partly Cloudy SCT044 SCT060 85 70     62%   89 29.99        
Aug 19 15:55 SSW 5 10 Cloudy SCT047 BKN055 OVC070 84 70     63%   88 30        
Aug 19 15:35 S 5 10 Mostly Cloudy SCT055 BKN070 BKN080 84 70     64%   88 30        
Aug 19 15:15 S 5 10 Partly Cloudy SCT038 SCT046 SCT090 84 70     62%   89 30.01        
Aug 19 14:55 SE 3 10 Mostly Cloudy SCT038 SCT046 BKN055 85 72     66%   90 30.01        
Aug 19 14:35 E 3 10 Mostly Cloudy SCT038 BKN050 BKN060 84 71     66%   89 30.02        
Aug 19 14:15 Calm 10 Cloudy SCT038 BKN055 OVC085 82 71     69%   86 30.02        
Aug 19 13:55 E 6 10 Cloudy SCT038 BKN050 OVC085 82 71     69%   86 30.03        
Aug 19 13:35 E 7 10 Cloudy SCT037 BKN046 OVC050 82 71     69%   86 30.03        
Aug 19 13:15 ENE 7 10 Cloudy BKN037 BKN046 OVC060 83 71     68%   87 30.03        
Aug 19 12:55 E 6 10 Mostly Cloudy BKN037 BKN048 BKN060 83 70     65%   88 30.02        
Aug 19 12:35 Calm 10 Mostly Cloudy BKN037 BKN048 BKN055 84 69     62%   88 30.02        
Aug 19 12:15 Calm 10 Mostly Cloudy BKN038 BKN044 BKN050 85 70     61%   89 30.03        
Aug 19 11:55 Calm 10 Partly Cloudy SCT043 SCT050 84 69     59%   88 30.03        
Aug 19 11:35 S 3 10 Partly Cloudy SCT032 SCT039 84 70     64%   88 30.02        
Aug 19 11:15 Calm 10 Partly Cloudy SCT032 SCT039 83 70     64%   87 30.02        
Aug 19 10:55 Calm 10 Partly Cloudy SCT030 82 70     66%   86 30.02        
Aug 19 10:35 Calm 10 Clear CLR 81 70     69%   85 30.02        
Aug 19 10:15 Calm 10 Partly Cloudy SCT026 80 70     71%   83 30.02        
Aug 19 09:55 Calm 10 Clear CLR 80 70     72%   82 30.02        
Aug 19 09:35 Calm 10 Clear CLR 80 71     76%   83 30.01        
Aug 19 09:15 Calm 10 Clear CLR 78 71     79%   79 30.02        
Aug 19 08:55 Calm 10 Partly Cloudy SCT039 76 71     84%   77 30.02        
Aug 19 08:35 Calm 10 Partly Cloudy SCT039 74 71     90%   76 30.02        
Aug 19 08:15 Calm 10 Mostly Cloudy BKN039 73 71     92%   75 30.01        
Aug 19 07:55 Calm 10 Clear CLR 72 71     96%   73 30.01        
Aug 19 07:35 Calm 10 Clear CLR 70 70     99%   72 30.01        
Aug 19 07:15 Calm 10 Clear CLR 69 69     100%     30        
Aug 19 06:55 Calm 10 Partly Cloudy SCT042 67 67     100%     30        
Aug 19 06:35 Calm 10 Partly Cloudy SCT042 67 67     100%     30        
Aug 19 06:15 Calm 10 Partly Cloudy SCT042 SCT080 67 67     100%     29.99        
Aug 19 05:55 Calm 10 Mostly Cloudy BKN080 BKN090 68 68     100%     29.98        
Aug 19 05:35 Calm 10 Mostly Cloudy SCT080 BKN090 68 68     100%     29.97        
Aug 19 05:15 Calm 10 Cloudy BKN080 OVC100 69 69     100%     29.97        
Aug 19 04:55 Calm 10 Cloudy OVC080 70 69     98%     29.97        
Aug 19 04:35 Calm 10 Cloudy BKN080 OVC095 69 69     100%     29.97        
Aug 19 04:15 Calm 10 Cloudy OVC095 69 69     100%     29.96        
Aug 19 03:55 Calm 10 Cloudy SCT080 OVC095 69 69     100%     29.96        
Aug 19 03:35 Calm 10 Cloudy OVC095 68 68     100%     29.95        
Aug 19 03:15 Calm 10 Cloudy SCT075 OVC095 68 68     100%     29.95        
Aug 19 02:55 Calm 10 Cloudy BKN075 OVC095 68 68     100%     29.94        
Aug 19 02:35 Calm 10 Cloudy OVC075 69 69     100%     29.94        
Aug 19 02:15 Calm 10 Mostly Cloudy BKN075 BKN095 68 68     100%     29.94        
Aug 19 01:55 S 3 10 Partly Cloudy SCT095 67 67     100%     29.95        
Aug 19 01:35 S 7 10 Partly Cloudy SCT095 66 66     100%     29.95        
Aug 19 01:15 Calm 10 Partly Cloudy SCT095 68 68     100%     29.94        
Aug 19 00:55 Calm 10 Partly Cloudy SCT095 69 69     100%     29.94        
Aug 19 00:35 Calm 10 Clear CLR 68 68     100%     29.94        
Aug 19 00:15 Calm 10 Clear CLR 67 67     100%     29.94        
Aug 18 23:55 Calm 10 Clear CLR 68 68     100%     29.94        
Aug 18 23:35 Calm 10 Clear CLR 68 68     99%     29.94        
Aug 18 23:15 Calm 10 Clear CLR 70 69     98%     29.93        
Aug 18 22:55 Calm 10 Clear CLR 70 69     96%     29.93        
Aug 18 22:35 Calm 10 Clear CLR 68 68     99%     29.92        
Aug 18 22:15 Calm 10 Clear CLR 69 68     95%     29.92        
Aug 18 21:55 Calm 10 Clear CLR 72 68     87%   73 29.92        
Aug 18 21:35 Calm 10 Clear CLR 73 68     84%   74 29.91        
Aug 18 21:15 W 5 10 Clear CLR 74 68     82%   75 29.91        
Aug 18 20:55 W 5 10 Clear CLR 75 68     79%   76 29.9        
Aug 18 20:35 W 5 10 Clear CLR 75 69     79%   76 29.89        
Aug 18 20:15 W 6 10 Clear CLR 76 69     77%   77 29.87        
Aug 18 19:55 W 5 10 Clear CLR 78 68     73%   78 29.87        
Aug 18 19:35 WNW 10 10 Clear CLR 79 69     72%   80 29.86        
Aug 18 19:15 W 8 10 Clear CLR 80 70     70%   83 29.86        
Aug 18 18:55 W 7 10 Clear CLR 81 70     69%   84 29.84        
Aug 18 18:35 W 7 10 Clear CLR 82 70     67%   86 29.84        
Aug 18 18:15 W 6 10 Clear CLR 82 70     68%   86 29.84        
Aug 18 17:55 W 8 10 Clear CLR 82 70     67%   86 29.85        
Aug 18 17:35 W 10 10 Clear CLR 83 71     67%   87 29.85        
Aug 18 17:15 W 8 10 Clear CLR 83 71     68%   87 29.85        
Aug 18 16:55 W 6 10 Clear CLR 82 71     70%   86 29.86        
Aug 18 16:35 W 9 10 Clear CLR 82 72     72%   86 29.86        
Aug 18 16:15 W 9 10 Clear CLR 82 71     69%   87 29.85        
Aug 18 15:55 WNW 8 10 Partly Cloudy SCT055 82 72     70%   87 29.84        
Aug 18 15:35 W 9 10 Partly Cloudy SCT035 SCT046 SCT055 83 71     67%   87 29.84        
Aug 18 15:15 W 8 10 Partly Cloudy SCT034 SCT048 SCT055 83 71     67%   87 29.85        
Aug 18 14:55 WSW 9 10 Clear CLR 83 71     68%   87 29.83        
Aug 18 14:35 S 14 10 Clear CLR 83 71     66%   88 29.82        
Aug 18 14:15 S 16 10 Clear CLR 83 70     65%   87 29.81        
Aug 18 13:55 S 18 10 Clear CLR 82 71     69%   86 29.81        
Aug 18 13:35 S 15 10 Clear CLR 81 72     74%   86 29.8        
Aug 18 13:15 S 17 10 Clear CLR 79 72     81%   82 29.81        
Aug 18 12:55 S 15 10 Partly Cloudy SCT009 75 75     100%   77 29.84       1
Aug 18 12:35 S 11 10 Mostly Cloudy BKN007 73 73     100%   75 29.86        
Aug 18 12:15 S 9 10 Cloudy OVC007 72 72     100%   74 29.87        
Aug 18 11:55 SSE 5 10 Mostly Cloudy BKN007 71 71     100%   73 29.87        
Aug 18 11:35 ESE 6 10 Partly Cloudy SCT007 71 71     100%   72 29.87        
Aug 18 11:15 Calm 10 Clear CLR 70 70     100%     29.86        
Aug 18 10:55 Calm 10 Light Rain SCT030 SCT065 SCT090 69 69     100%     29.88   0    
Aug 18 10:35 Calm 7 Thunderstorms and Heavy Rain SCT049 SCT075 OVC100 69 69     100%     29.9   0    
Aug 18 10:15 WNW 5 1.5 Thunderstorms and Heavy Rain SCT024 BKN049 OVC065 69 69     100%     29.89   0    
Aug 18 09:55 W 11 2 Thunderstorms and Heavy Rain BKN016 BKN030 OVC050 68 68     100%     29.9   1 1  
Aug 18 09:35 WSW 10 4 Thunderstorms and Heavy Rain SCT009 BKN026 OVC085 70 70     100%     29.88   0    
Aug 18 09:15   5 Thunderstorms and Heavy Rain SCT005 SCT014 BKN033 69 69     100%     29.87   0    
Aug 18 08:55 S 3 10 Thunderstorms SCT060 SCT110 68 68     100%     29.84        
Aug 18 08:35 SE 6 10 Light Rain SCT110 67 67     100%     29.82        
Aug 18 08:15 S 7 10 Partly Cloudy SCT110 67 67     100%     29.85        
Aug 18 07:55 SSW 5 10 Thunderstorms and Rain SCT007 SCT028 OVC100 67 67     100%     29.86   0    
Aug 18 07:35 W 13 1 Thunderstorms and Heavy Rain   67 66     96%     29.9   0    
Aug 18 07:15 S 7 10 Partly Cloudy SCT035 SCT050 SCT065 71 71     99%   73 29.82        
Aug 18 06:55 S 8 10 Partly Cloudy SCT035 71 71     100%   72 29.84        
Aug 18 06:35 S 6 10 Partly Cloudy SCT032 70 70     100%   72 29.84        
Aug 18 06:15 SSE 7 10 Mostly Cloudy SCT034 BKN042 70 70     100%     29.85        
Aug 18 05:55 SSE 8 10 Mostly Cloudy SCT036 BKN042 BKN050 70 70     100%     29.84        
Aug 18 05:35 SE 7 10 Cloudy BKN042 OVC055 69 69     100%     29.83        
Aug 18 05:15 Calm 10 Mostly Cloudy BKN044 BKN049 69 69     100%     29.83        
Aug 18 04:55 Calm 10 Partly Cloudy SCT046 SCT050 SCT075 69 69     99%     29.84        
Aug 18 04:35 Calm 10 Mostly Cloudy BKN048 BKN060 BKN075 69 69     99%     29.86        
Aug 18 04:15 Calm 10 Cloudy BKN050 BKN055 OVC120 69 69     100%     29.87        
Aug 18 03:55 Calm 10 Mostly Cloudy SCT023 BKN050 69 69     100%     29.87        
Aug 18 03:35 Calm 10 Cloudy SCT023 SCT032 OVC050 69 69     100%     29.87        
Aug 18 03:15 Calm 10 Cloudy SCT020 BKN032 OVC048 68 68     100%     29.87        
Aug 18 02:55 Calm 10 Cloudy SCT027 OVC033 69 69     100%     29.87        
Aug 18 02:35 Calm 10 Mostly Cloudy BKN036 68 68     100%     29.87        
Aug 18 02:15 Calm 10 Mostly Cloudy BKN040 68 68     100%     29.87        
Aug 18 01:55 Calm 10 Partly Cloudy SCT040 68 68     100%     29.88        
Aug 18 01:35 Calm 10 Clear CLR 68 68     100%     29.88        
Aug 18 01:15 Calm 10 Clear CLR 68 68     100%     29.89        
Aug 18 00:55 Calm 10 Clear CLR 68 68     100%     29.9        
Aug 18 00:35 Calm 7 Clear CLR 67 67     100%     29.9        
Aug 18 00:15 Calm 10 Clear CLR 68 68     100%     29.91        
Aug 17 23:55 Calm 10 Clear CLR 68 68     100%     29.9        
Aug 17 23:35 Calm 10 Clear CLR 68 68     100%     29.89        
Aug 17 23:15 Calm 10 Clear CLR 68 68     100%     29.9        
Aug 17 22:55 Calm 10 Clear CLR 68 68     100%     29.9        
Aug 17 22:35 Calm 10 Clear CLR 68 68     100%     29.9        
Aug 17 22:15 Calm 7 Clear CLR 68 68     100%     29.9        
Aug 17 21:55 Calm 10 Clear CLR 68 68     99%     29.9        
Aug 17 21:35 Calm 10 Clear CLR 70 68     95%     29.9        
Aug 17 21:15 Calm 10 Clear CLR 71 69     92%   72 29.9        
Aug 17 20:55 Calm 10 Clear CLR 72 69     91%   73 29.89        
Aug 17 20:35 SSW 5 10 Clear CLR 72 69     88%   74 29.89        
Aug 17 20:15 SSW 6 10 Clear CLR 74 69     85%   75 29.89        
Aug 17 19:55 SSW 9 10 Clear CLR 75 69     83%   76 29.88        
Aug 17 19:35 SSW 10 10 Clear CLR 75 69     81%   76 29.88        
Aug 17 19:15 SSW 8 10 Clear CLR 75 69     81%   76 29.88        
Aug 17 18:55 S 9 10 Partly Cloudy SCT033 75 69     81%   76 29.88        
Aug 17 18:35 SSW 11 10 Mostly Cloudy SCT022 BKN033 76 69     79%   77 29.88        
Aug 17 18:15 SSW 8 10 Mostly Cloudy SCT020 SCT028 BKN035 77 70     79%   78 29.87        
Aug 17 17:55 SSW 6 10 Cloudy BKN020 OVC026 77 72     83%   78 29.88        
Aug 17 17:35 SW 7 10 Cloudy BKN017 OVC026 77 71     83%   78 29.88        
Notice The following observation data may not be complete
May 15 09:15   10 Partly Cloudy SCT017 SCT032          %              
May 14 23:15 SE 5 1.5 Cloudy BKN015 BKN024 OVC038 63 63     98%     29.85   0    
May 14 10:15 Calm 10 Cloudy OVC090 65 65     99%     29.98        
May 14 06:55   7 Cloudy BKN050 BKN065 OVC080 58 57     97%     30.01        
May 14 02:35 SE 3 7 Clear CLR 52 52     100%     29.92        
May 13 22:55 Calm 7 Mostly Cloudy BKN085 52 51     98%     29.99        
May 13 14:15 N 7 10 Partly Cloudy SCT080 64 57     78%     30.02        
May 13 12:35 NNE 5 7 Clear   63 58     82%     30.04        
May 13 12:15 NNE 7 7 Mostly Cloudy BKN100 62 57     83%     30.04        
Notice The following observation data may not be complete
May 13 09:15   4 Fog/Mist OVC005          %              
May 13 01:15 NE 8 3 Thunderstorms and Rain OVC003 50 50     100% 47   30.05        
May 12 23:35 NE 3 5 Fog/Mist OVC005 47 47     100% 46   30.04        
May 12 16:35 ENE 8 2 Clear   47 47     100% 43   30.04        
May 12 14:15 NNE 9 7 Cloudy OVC012 48 46     93% 44   30.11        
Notice The following observation data may not be complete
May 12 13:15   7 Cloudy OVC012          %              
May 12 12:35 NNE 11 10 Cloudy OVC010 50 47     90% 45   30.1        
May 12 03:35 NNE 13 10 Clear   47 45     93% 42   29.96        
May 12 01:55 NE 13 10 Cloudy OVC080 49 46     92% 44   29.95        
Notice The following observation data may not be complete
May 12 00:35   10 Cloudy OVC090          %              
May 11 23:35 NNE 6 10 Cloudy OVC090 51 47     89%     29.96        
May 11 22:55 NE 5 10 Cloudy SCT090 OVC120 50 47     90% 48   29.96        
May 11 22:35 NNE 6 10 Cloudy OVC120 50 47     90% 48   29.96        
May 11 21:55 NE 6 10 Cloudy OVC110 50 47     90% 47   29.96        
May 11 20:55 NE 10 10 Mostly Cloudy SCT070 BKN095 50 47     90% 46   29.94        
May 11 13:15 E 15 10 Clear CLR 58 51     76%     29.94        
Jun 12 07:35 W 13 10 Clear CLR 76 61     60%   76 29.99        
Jun 12 01:55 SSW 10 10 Clear CLR 73 58     58%   73 29.96        
Jun 11 21:15 S 14 10 Clear CLR 81 56     42%   81 29.89        
Notice The following observation data may not be complete
Jun 11 16:35   10 Clear CLR          %              
Jun 11 12:35 SW 18 10 Clear CLR 88 59     38%   88 29.96        
Notice The following observation data may not be complete
Jun 11 12:15   10 Clear CLR          %              
Jun 11 10:35 WSW 16 10 Clear CLR 84 60     44%   84 29.99        
Notice The following observation data may not be complete
Jun 11 02:35   10 Clear CLR          %              
Notice The following observation data may not be complete
Jun 10 20:15   10 Clear CLR          %              
Jun 10 17:55 SSW 23 10 Clear and Windy CLR 87 47     24%   84 29.81        
Jun 10 15:55   10 Clear CLR 89 47     24%   86 29.83        
Jun 10 15:15 SSW 23 7 Clear and Windy CLR 89 49     26%   86 29.83        
Jun 10 13:15   10 Clear CLR 87 49     28%   84 29.87        
Jun 10 10:55 SW 20 10 Clear and Windy CLR 82 53     37%   81 29.89        
Jun 10 08:15 SW 9 10 Clear CLR 71 56     59%   70 29.91        
Notice The following observation data may not be complete
Jun 09 23:15   10 Clear CLR          %              
Jun 09 18:55 NNE 8 10 Mostly Cloudy SCT085 BKN110 72 56     56%   72 29.8        
Notice The following observation data may not be complete
Jun 09 18:15   10 Mostly Cloudy SCT030 BKN085          %              
Jun 09 16:35 NE 13 10 Clear   83 55     38%   82 29.77        
Jun 09 16:15   10 Partly Cloudy SCT090 88 52     29%   86 29.76        
Jun 09 10:35 W 11 10 Clear CLR 80 54     40%   80 29.82        
Notice The following observation data may not be complete
Jun 09 09:15   10 Partly Cloudy SCT095          %              
Jun 09 06:55 NNW 9 10 Partly Cloudy SCT100 SCT120 68 50     53%     29.81        
Notice The following observation data may not be complete
Jun 09 04:35   10 Clear CLR          %              
Jun 09 00:15 Calm 10 Clear   64 49     57%     29.85        
Jun 08 23:15 S 7 10 Mostly Cloudy BKN100 65 49     55%     29.85        
Jun 08 18:55 WSW 6 10 Clear CLR 77 41     27%   76 29.86        
Notice The following observation data may not be complete
Jun 07 22:15   10 Clear CLR          %              
Notice The following observation data may not be complete
Jun 07 21:15   10 Clear CLR          %              
Jun 07 14:35 NE 9 10 Clear CLR 71 45     40%   70 30.11        
Jun 07 11:55 NNE 11 10 Clear CLR 69 48     48%     30.14        
Jun 07 10:55 NNE 11 10 Clear CLR 67 48     49%     30.15        
Notice The following observation data may not be complete
Jun 07 09:15   10 Clear CLR          %              
Jun 06 09:55 NNE 10 10 Clear CLR 63 48     59%     30.06        
Notice The following observation data may not be complete
Jun 06 09:15   10 Clear CLR          %              
Jun 06 04:35 N 7 10 Clear CLR 55 49     81%     29.99        
Jun 06 00:35 N 10 10 Clear CLR 57 45     64%     29.96        
Notice The following observation data may not be complete
Jun 05 19:15   10 Clear CLR          %